Regional Weather Roundup
Issued by NWS Wakefield, VA

Home | Current Version | Previous Version | Graphics & Text | Print | Product List | Glossary On
Versions: 1 2 3 4 5 6 7 8 9 10 11 12 13 14 15 16 17 18 19 20 21 22 23 24 25 26 27 28 29 30 31 32 33 34 35 36 37 38 39 40 41 42 43 44 45 46 47 48
000
ASUS41 KAKQ 011915
RWRAKQ

REGIONAL WEATHER ROUNDUP
NATIONAL WEATHER SERVICE WAKEFIELD VA
300 PM EDT SAT AUG 01 2015

Note: "fair" indicates few or no clouds below 12,000 feet with no
significant weather and/or obstructions to visibility. * = Denotes
station may not report precipitation (e.g., rain,snow,etc.),
thunder or fog.

VAZ042-051-052>054-056-012000-
NORTHERN VIRGINIA

CITY           SKY/WX    TMP DP  RH WIND       PRES   REMARKS
WASH NATIONAL  PTSUNNY   88  64  44 SW9       29.86F
DULLES         PTSUNNY   86  63  45 W6        29.87F
FORT BELVOIR   SUNNY     88  65  45 NW10      29.85F
QUANTICO       NOT AVBL
FREDERICKSBRG* MOSUNNY   91  61  36 SW9       29.85F
STAFFORD*      MOSUNNY   85  65  52 SW5       29.90F
WARRENTON      MOSUNNY   88  66  48 SW5       29.87F
CULPEPER*      MOSUNNY   86  66  50 CALM      29.88S
MANASSAS*      MOSUNNY   88  63  42 CALM      29.87F
LEESBURG*      MOSUNNY   88  64  45 W8        29.88S
WINCHESTER     MOSUNNY   90  55  31 W13       29.89F
FRONT ROYAL*   FAIR      86  59  39 W8        29.88F
LURAY*         FAIR      90  54  29 NW5       29.90F
$$

VAZ048-049-060>072-079>083-012000-
CENTRAL AND SOUTH CENTRAL VIRGINIA

CITY           SKY/WX    TMP DP  RH WIND       PRES   REMARKS
RICHMOND       MOSUNNY   93  60  33 SW8       29.87F
CHESTERFIELD*    N/A    N/A N/A N/A MISG        N/A
PETERSBURG*    SUNNY     91  68  46 S6        29.88F HX  95
HANOVER        SUNNY     90  61  37 W10       29.88F
TAPPAHANNOCK*  SUNNY     89  61  39 CALM      29.87F
QUINTON*       FAIR      90  62  39 SW7       29.86F
CHARLOTTSVILLE SUNNY     87  61  41 S6        29.88F
GORDONSVILLE*  FAIR      88  64  45 SW5       29.87F
ORANGE*        SUNNY     88  64  45 SW6       29.89F
LOUISA*        MOSUNNY   90  63  40 SW5       29.87F
BUMPASS*       FAIR      89  64  43 MISG      29.87F
FARMVILLE*     SUNNY     91  56  31 SW8       29.88S
CREWE*         FAIR     N/A N/A N/A SW5       29.89F
FORT PICKETT*  FAIR      91  59  34 W6G20     29.89F
CHASE CITY*    FAIR      91  62  38 W5        29.90F
CLARKSVILLE*   FAIR      88  61  40 W3        29.90F
SOUTH HILL*    SUNNY     87  63  44 SW7       29.96F
LAWRENCEVILLE* FAIR      90  63  40 W8        29.88F
EMPORIA*       SUNNY     90  61  37 NW5       29.89F
$$

VAZ088>098-012000-
SOUTHEAST VIRGINIA

CITY           SKY/WX    TMP DP  RH WIND       PRES   REMARKS
NORFOLK        PTSUNNY   88  68  51 NE10      29.87F
VIRGINIA BEACH PTSUNNY   92  69  47 S10       29.86F HX  97
NORFOLK NAVAL  PTSUNNY   89  63  41 W9        29.88F
WEST POINT*    SUNNY     92  55  28 SW8       29.88F
SALUDA*        FAIR      89  65  45 SW7       29.87S
NEWPORT NEWS   SUNNY     91  61  36 S9        29.87F
LANGLEY AFB    MOSUNNY   89  64  42 W7        29.87F
FORT EUSTIS    SUNNY     90  57  32 VRB6      29.85F
WILLIAMSBURG*  SUNNY     95  63  34 SW5       29.88F HX  96
HR EXEC AP*    FAIR      91  66  43 W6        29.89F
FRANKLIN*      MOSUNNY   91  59  33 SW5       29.88F
WAKEFIELD      SUNNY     92  59  33 W8        29.88F
$$

VAZ020-022-025-037-045-012000-
WEST CENTRAL AND SOUTHWEST VIRGINIA

CITY           SKY/WX    TMP DP  RH WIND       PRES   REMARKS
STAUNTON*      MOSUNNY   89  55  30 NW9G17    29.93F
WAYNESBORO*    FAIR      83  60  45 W6        29.94F
HOT SPRINGS VA PTSUNNY   75  56  50 W12       30.07S
LYNCHBURG      MOSUNNY   84  59  42 SW5       29.94F
DANVILLE       MOSUNNY   89  61  38 S5        29.92F
SOUTH BOSTON*  FAIR      89  60  37 W3        29.90F
MARTINSVILLE   SUNNY     91  52  26 CALM      29.96F
ROANOKE        MOSUNNY   89  54  30 NW14      29.96F
BLACKSBURG     SUNNY     83  58  42 SW9       30.04F
DUBLIN*          N/A     82  54  37 W6        30.03S
MARION*        SUNNY     79  56  45 W12G17    30.08S
HILLSVILLE*    SUNNY     79  53  40 W8        30.04F
RICHLANDS*     MOCLDY    77  59  53 NW9       30.07F
WISE*          MOSUNNY   82  50  32 NW8       30.09F
ABINGDON*      MOSUNNY   83  54  36 NW5       30.05S
$$

MDZ021>025-VAZ099-100-012000-
SOUTHERN MARYLAND AND THE DELMARVA PENINSULA

CITY           SKY/WX    TMP DP  RH WIND       PRES   REMARKS
PATUXENT RIVER MOSUNNY   88  61  40 SW12      29.85F
BAY BRIDGE APT   N/A     84  55  37 W3        29.85F
LEONARDTOWN    SUNNY     88  59  37 SW6       29.87F
DOVER          SUNNY     88  66  48 W8G16     29.83F
GEORGETOWN     MOSUNNY   91  60  35 W12G17    29.84F
EASTON         MOSUNNY   88  66  48 NW9       29.89F
CAMBRIDGE      MOSUNNY   86  61  42 W5        29.85S
SALISBURY      SUNNY     89  62  40 W15       29.85F
OCEAN CITY     MOSUNNY   88  73  61 SW14      29.84F HX  95
WALLOPS ISLAND SUNNY     88  66  48 W9        29.87F
ACCOMACK*      SUNNY     88  82  84 W9G17     29.87S HX 108
$$

NCZ012>017-030>032-012000-
NORTH CENTRAL AND EASTERN NORTH CAROLINA

CITY           SKY/WX    TMP DP  RH WIND       PRES   REMARKS
ROANOKE RAPIDS FAIR      90  61  37 NW6       29.88F
RALEIGH        MOSUNNY   92  59  33 VRB3      29.91F
ELIZABETH CITY MOSUNNY   88  71  57 S9G20     29.88F
AHOSKIE*       MOSUNNY   90  59  34 CALM      29.87F
EDENTON*         N/A     89  71  54 S9        29.88F
CURRITUCK*     PTSUNNY   88  66  48 S3        29.89S
KILL DEVIL HLS MOSUNNY   89  72  56 S7        29.89S HX  96
MANTEO         MOSUNNY   82  73  75 SE8       29.90F
CAPE HATTERAS  PTSUNNY   87  75  67 S8        29.91F HX  96
TARBORO*         N/A     94  58  29 CALM      29.88F
GOLDSBORO      SUNNY     93  65  39 NE6       29.87F HX  95
WASHINGTON     SUNNY     89  64  44 N3        29.89F
GREENVILLE     SUNNY     93  61  33 SW7       29.90F
NEW BERN       MOSUNNY   91  67  44 VRB3      29.89F
WILMINGTON     MOSUNNY   91  69  48 W6        29.90F HX  96
$$

VAZ048-012000-
ELSEWHERE

CITY           SKY/WX    TMP DP  RH WIND       PRES   REMARKS
HARRISBURG PA  MOSUNNY   88  54  31 W13G18    29.84F
BALTIMORE      PTSUNNY   87  60  40 W9        29.85F
ANNAPOLIS      CLOUDY    85  60  42 CALM      29.85F
ANDREWS AFB    MOSUNNY   87  63  43 W10       29.86F
PHILADELPHIA   PTSUNNY   87  57  35 W16       29.83F
HENDERSON NC   SUNNY     89  52  27 W7        29.91F
GREENSBORO     PTSUNNY   88  55  32 W8        29.94F
ROCKY MOUNT    SUNNY     94  54  25 CALM      29.88F
$$

VAZ100-012000-
MARINE

STATION/POSITION TIME  TEMP    WIND        PRES    WAVE   SWELL
                       AIR SEA DIR/SP/G            HT/PER HT/PER
                 (UTC) (F)     (DEG/KT/KT) (MB)    (FT/S) (FT/S)
BRANDYWINE LGT   1800   82 76   30/  5/  5 1011.1F
CAPE MAY NJ      1800   83 79  250/  4/  5 1010.5F
LEWES DE         1800   89 73  240/  8/ 14 1010.5F
15NM E FENWICK I 1850   80 80  200/ 16/ 17 1010.7F   3/ 8   2/ 8
OCEAN-CITY-INLET 1800   80 74  200/ 13/ 18 1010.3F
WACHAPREAGUE VA  1800   86 86  200/ 13/ 16 1011.7F
THOMAS POINT MD  1900   83 81  170/  2/  2 1011.3
GOOSES REEF MD   1900   84 84   60/  6/  8 1012.0F
COVE POINT MD    1800   87     250/  6/ 11 1012.0F
SOLOMONS ISLAND  1800      83                N/A
BISHOPS HEAD MD  1800   84 84  240/  7/  8 1010.7F
PINEY POINT MD   1800          140/  3/  4   N/A
POTOMAC MD       1900   86 86  160/  4/  6 1009.9F   0
CAMBRIDGE MD     1800   84 84  320/  9/ 11 1010.3F
LEWISETTA VA     1800   86 83  240/ 10/ 13 1011.1F
RAPPAHANNOCK LGT 1800          190/ 11/ 12 1012.3F
STINGRAY PT      1900   88 85  240/  8/ 12 1011.5F   1
YORK RVR RNG VA  1800   90        CALM     1011.3F
YORKTOWN VA      1800   87 83  260/  7/ 11 1011.5F
JAMESTOWN VA     1900   88 87  220/  6/ 10   N/A
DOMINION TERM VA 1800   87     230/  4/  5 1011.9F
KIPTOPEKE VA     1800      81  190/  8/  9   N/A
CHES BAY BRIDGE  1800   83 81   30/  3/  4 1011.6F
CAPE HENRY VA    1800   83     150/  9/ 18   N/A
CHESAPEAKE LGHT  1800   81     170/ 16/ 17 1012.6F
WILLOUBY STN VA  1800   85     270/  6/  7 1012.8F
CAPE HENRY BUOY  1828      82                N/A     2/ 8   2/11
1ST LANDING BUOY 1900      81              1011.4F   1/ 3
CAPE CHARLES BUO 1826      82                N/A     2/ 8   2/ 8
OFFSHORE WE BUOY 1811      82                N/A     3/ 8   3/ 8
64NM E OF VA BCH 1850   81 82  200/ 12/ 14 1012.4F   3/ 8   3/ 8
DUCK PIER NC     1800   81 79  130/ 11/ 13 1011.6F
44100 DUCK FRF   1824      81                N/A     3/ 8   2/12
44056 DUCK FRF   1811      79                N/A     2/10
OREGON INLET NC  1800   81 81  180/ 11/ 13 1012.6F
HATTERAS NC      1800   83 80  160/  7/  8 1012.9F
DIAMOND SHLS NC  1850   81 85  170/ 12/ 12 1013.1R   3/ 8   3/ 8



USA.gov is the U.S. government's official web portal to all federal, state and local government web resources and services.